Maryland Science Center, MD

3:03 AM EST on December 08, 2019 (GMT -0500)
Maryland Science Center

Weather History for KDMH - October, 2019

Change the Weather History Date:

Friday, October 18, 2019

  Actual Average Record
Temperature  
Mean Temperature 56 °F 59 °F  
Max Temperature 63 °F 68 °F 84 °F (2016)
Min Temperature 49 °F 51 °F 40 °F (2015)
Degree Days  
Heating Degree Days 9 7  
Month to date heating degree days 44 82  
Since 1 July heating degree days 44 100  
Cooling Degree Days 0 1  
Month to date cooling degree days 57 33  
Year to date cooling degree days 2046 1658  
Growing Degree Days 6 (Base 50)    
Moisture  
Dew Point 36 °F    
Average Humidity 48    
Maximum Humidity 61    
Minimum Humidity 34    
Precipitation  
Precipitation 0.00 in 0.10 in 0.13 in (2000)
Month to date precipitation 1.55 1.91  
Year to date precipitation 32.42 33.37  
Sea Level Pressure  
Sea Level Pressure 29.94 in    
Wind  
Wind Speed - (North)    
Max Wind Speed -    
Max Gust Speed -    
T = Trace of Precipitation, MM = Missing Value Source: NWS Daily Summary

Daily Weather History Graph

Daily Weather History Graph

Search for Another Location

Airport or City:

Astronomy

Oct. 18, 2019 Rise Set
Actual Time 7:19 AM EDT 6:23 PM EDT
Civil Twilight 6:51 AM EDT 6:50 PM EDT
Nautical Twilight 6:20 AM EDT 7:21 PM EDT
Astronomical Twilight 5:49 AM EDT 7:52 PM EDT
Moon 9:39 PM EDT (10/18) 11:48 AM EDT (10/18)
Length of Visible Light 11h 58m
Length of Day
11h 04m
Waning Gibbous, 79% of the Moon is Illuminated
Oct 18
Waning Gibbous
Oct 21
Last Quarter
Oct 27
New
Nov 4
First Quarter
Nov 12
Full

Hourly Weather History & Observations

Time (EDT) Temp. Dew Point Humidity Pressure Visibility Wind Dir Wind Speed Gust Speed Precip Events Conditions
12:54 AM 51.1 °F 36.0 °F 56% 29.82 in - North - - N/A   Unknown
1:54 AM 50.0 °F 36.0 °F 59% 29.83 in - North - - N/A   Unknown
2:54 AM 50.0 °F 36.0 °F 59% 29.83 in - North - - N/A   Unknown
3:54 AM 48.9 °F 36.0 °F 61% 29.84 in - North - - N/A   Unknown
4:54 AM 50.0 °F 36.0 °F 59% 29.85 in - North - - N/A   Unknown
5:54 AM 48.9 °F 36.0 °F 61% 29.87 in - North - - N/A   Unknown
6:54 AM 50.0 °F 35.1 °F 57% 29.89 in - North - - N/A   Unknown
7:54 AM 48.9 °F 36.0 °F 61% 29.92 in - North - - N/A   Unknown
8:54 AM 52.0 °F 36.0 °F 54% 29.94 in - North - - N/A   Unknown
10:54 AM 55.0 °F 36.0 °F 49% 29.96 in - North - - N/A   Unknown
12:54 PM 60.1 °F 36.0 °F 41% 29.95 in - North - - N/A   Unknown
1:54 PM 61.0 °F 35.1 °F 38% 29.94 in - North - - N/A   Unknown
2:54 PM 63.0 °F 35.1 °F 35% 29.94 in - North - - N/A   Unknown
3:54 PM 63.0 °F 34.0 °F 34% 29.94 in - North - - N/A   Unknown
4:54 PM 63.0 °F 34.0 °F 34% 29.94 in - North - - N/A   Unknown
5:54 PM 62.1 °F 34.0 °F 35% 29.96 in - North - - N/A   Unknown
6:54 PM 60.1 °F 35.1 °F 39% 29.98 in - North - - N/A   Unknown
7:54 PM 57.9 °F 36.0 °F 44% 30.02 in - North - - N/A   Unknown
8:54 PM 55.9 °F 37.0 °F 49% 30.04 in - North - - N/A   Unknown
9:54 PM 54.0 °F 37.0 °F 53% 30.06 in - North - - N/A   Unknown
10:54 PM 53.1 °F 37.0 °F 55% 30.07 in - North - - N/A   Unknown
11:54 PM 54.0 °F 37.0 °F 53% 30.06 in - North - - N/A   Unknown